(°C)
15°
15°
15°
15°
15°
15°
14°
(°C)
14°
14°
14°
14°
14°
14°
14°
ZJZ
Z
Z
ZJZ
JJZ
JJZ
JJZ
(km/h)
3-6
2-6
2-5
1-4
1-4
1-5
1-6
(mm)
0
0
0
0
0
0
0
(%)
4
5
4
4
4
3
3

Výška Slnka nad obzorom

/ -26.5°
sun-icon
UV 9
05:42
19:48
Ubúdajúci kosáčik (303°)
03:10
15:34

Správy METAR pre lokalitu San Diego (KSAN)

Čas Podmienky Teplota/
Rosný bod
Vietor Viditeľnosť Počasie Oblaky Tlak Zmeniť Nespracované
VFR 15.6°C / 13.3°C variable 0kt >10km - Scattered Clouds 1500ft 1013 - KSAN 260451Z 00000KT 10SM SCT015 16/13 A2994 RMK AO2 SLP138 T01560133
VFR 16.1°C / 13.3°C 300º 4kt >10km - Scattered Clouds 1800ft 1013 - KSAN 260351Z 30004KT 10SM SCT018 16/13 A2992 RMK AO2 SLP132 T01610133
VFR 16.7°C / 12.8°C 290º 5kt >10km - Few Clouds 1800ft
Few Clouds 25000ft
1012 - KSAN 260251Z 29005KT 9SM FEW018 FEW250 17/13 A2991 RMK AO2 SLP128 T01670128 53008
VFR 17.2°C / 12.8°C 270º 7kt >10km - Few Clouds 1800ft 1012 - KSAN 260151Z 27007KT 10SM FEW018 17/13 A2989 RMK AO2 SLP122 T01720128
VFR 18.3°C / 13.3°C 280º 5kt >10km - Few Clouds 1800ft 1011 - KSAN 260051Z 28005KT 10SM FEW018 18/13 A2988 RMK AO2 SLP118 T01830133
VFR 18.9°C / 12.8°C 220º 5kt >10km - Few Clouds 1800ft 1011 - KSAN 252351Z 22005KT 10SM FEW018 19/13 A2988 RMK AO2 SLP119 T01890128 10189 20161 58015
VFR 18.9°C / 12.8°C 230º 7kt >10km - Few Clouds 1800ft 1012 - KSAN 252251Z 23007KT 10SM FEW018 19/13 A2990 RMK AO2 SLP124 T01890128
VFR 18.3°C / 12.8°C 200º 7kt >10km - Scattered Clouds 1800ft 1013 - KSAN 252151Z 20007KT 10SM SCT018 18/13 A2992 RMK AO2 SLP131 T01830128
VFR 17.8°C / 12.8°C 220º 5kt >10km - Scattered Clouds 1800ft - KSAN 252140Z 22005KT 10SM SCT018 18/13 A2992 RMK AO2 T01780128
MVFR 18.3°C / 12.8°C 230º 6kt Gust 18kt >10km - Broken Clouds 1700ft 1013 - KSAN 252051Z 23006G18KT 10SM BKN017 18/13 A2993 RMK AO2 SLP134 T01830128 58004
MVFR 17.2°C / 12.8°C variable 6kt >10km - Overcast 1600ft - KSAN 252007Z VRB06KT 10SM OVC016 17/13 A2994 RMK AO2 T01720128
MVFR 17.2°C / 12.8°C variable 5kt >10km - Overcast 1600ft 1013 - KSAN 251951Z VRB05KT 10SM OVC016 17/13 A2994 RMK AO2 SLP136 T01720128
MVFR 16.7°C / 13.3°C 210º 7kt >10km - Overcast 1200ft 1013 - KSAN 251851Z 21007KT 9SM OVC012 17/13 A2994 RMK AO2 SLP139 T01670133
MVFR 16.1°C / 13.3°C 200º 6kt Gust 18kt >10km - Overcast 1000ft 1013 - KSAN 251751Z 20006G18KT 8SM OVC010 16/13 A2994 RMK AO2 SLP137 T01610133 10161 20128 51015
MVFR 16.1°C / 13.3°C variable 6kt >10km - Overcast 1000ft 1013 - KSAN 251651Z VRB06KT 7SM OVC010 16/13 A2994 RMK AO2 SLP136 T01610133
MVFR 16.1°C / 13.3°C 210º 6kt >10km - Overcast 1000ft 1013 - KSAN 251551Z 21006KT 7SM OVC010 16/13 A2992 RMK AO2 SLP130 T01610133
MVFR 15.6°C / 13.3°C variable 4kt >10km - Broken Clouds 1000ft - KSAN 251505Z VRB04KT 7SM BKN010 16/13 A2990 RMK AO2 T01560133
IFR 15.6°C / 13.3°C variable 0kt >10km - Broken Clouds 900ft 1012 - KSAN 251451Z 00000KT 7SM BKN009 16/13 A2989 RMK AO2 SLP122 T01560133 53012
VFR 15.6°C / 13.3°C variable 4kt >10km - Few Clouds 900ft - KSAN 251435Z VRB04KT 7SM FEW009 16/13 A2989 RMK AO2 T01560133
MVFR 13.9°C / 13.3°C variable 0kt 8000m Mist Vertical Visibility of 0ft. 1011 - KSAN 251351Z 00000KT 5SM BR FEW012 14/13 A2988 RMK AO2 SLP117 T01390133
VFR 13.3°C / 11.7°C 350º 3kt 9700m Mist Vertical Visibility of 0ft. 1011 - KSAN 251251Z 35003KT 6SM BR FEW012 13/12 A2986 RMK AO2 SLP112 T01330117
VFR 13.3°C / 12.2°C variable 0kt >10km - Few Clouds 1200ft 1011 - KSAN 251151Z 00000KT 8SM FEW012 13/12 A2986 RMK AO2 SLP111 T01330122 10144 20133 56003
VFR 13.3°C / 11.7°C variable 0kt >10km - Few Clouds 1200ft 1011 - KSAN 251051Z 00000KT 8SM FEW012 13/12 A2986 RMK AO2 SLP111 T01330117
VFR 13.9°C / 12.2°C variable 0kt >10km - Few Clouds 1200ft 1011 - KSAN 250951Z 00000KT 8SM FEW012 14/12 A2986 RMK AO2 SLP112 T01390122

VFR

15.6°C / 13.3°C

[Viac]
Vietor variable 0kt
Viditeľnosť >10km
Počasie -
Oblaky Scattered Clouds 1500ft
Tlak 1013
Zmeniť -
Nespracované KSAN 260451Z 00000KT 10SM SCT015 16/13 A2994 RMK AO2 SLP138 T01560133

VFR

16.1°C / 13.3°C

[Viac]
Vietor 300º 4kt
Viditeľnosť >10km
Počasie -
Oblaky Scattered Clouds 1800ft
Tlak 1013
Zmeniť -
Nespracované KSAN 260351Z 30004KT 10SM SCT018 16/13 A2992 RMK AO2 SLP132 T01610133

VFR

16.7°C / 12.8°C

[Viac]
Vietor 290º 5kt
Viditeľnosť >10km
Počasie -
Oblaky Few Clouds 1800ft
Few Clouds 25000ft
Tlak 1012
Zmeniť -
Nespracované KSAN 260251Z 29005KT 9SM FEW018 FEW250 17/13 A2991 RMK AO2 SLP128 T01670128 53008

VFR

17.2°C / 12.8°C

[Viac]
Vietor 270º 7kt
Viditeľnosť >10km
Počasie -
Oblaky Few Clouds 1800ft
Tlak 1012
Zmeniť -
Nespracované KSAN 260151Z 27007KT 10SM FEW018 17/13 A2989 RMK AO2 SLP122 T01720128

VFR

18.3°C / 13.3°C

[Viac]
Vietor 280º 5kt
Viditeľnosť >10km
Počasie -
Oblaky Few Clouds 1800ft
Tlak 1011
Zmeniť -
Nespracované KSAN 260051Z 28005KT 10SM FEW018 18/13 A2988 RMK AO2 SLP118 T01830133

VFR

18.9°C / 12.8°C

[Viac]
Vietor 220º 5kt
Viditeľnosť >10km
Počasie -
Oblaky Few Clouds 1800ft
Tlak 1011
Zmeniť -
Nespracované KSAN 252351Z 22005KT 10SM FEW018 19/13 A2988 RMK AO2 SLP119 T01890128 10189 20161 58015

VFR

18.9°C / 12.8°C

[Viac]
Vietor 230º 7kt
Viditeľnosť >10km
Počasie -
Oblaky Few Clouds 1800ft
Tlak 1012
Zmeniť -
Nespracované KSAN 252251Z 23007KT 10SM FEW018 19/13 A2990 RMK AO2 SLP124 T01890128

VFR

18.3°C / 12.8°C

[Viac]
Vietor 200º 7kt
Viditeľnosť >10km
Počasie -
Oblaky Scattered Clouds 1800ft
Tlak 1013
Zmeniť -
Nespracované KSAN 252151Z 20007KT 10SM SCT018 18/13 A2992 RMK AO2 SLP131 T01830128

VFR

17.8°C / 12.8°C

[Viac]
Vietor 220º 5kt
Viditeľnosť >10km
Počasie -
Oblaky Scattered Clouds 1800ft
Tlak
Zmeniť -
Nespracované KSAN 252140Z 22005KT 10SM SCT018 18/13 A2992 RMK AO2 T01780128

MVFR

18.3°C / 12.8°C

[Viac]
Vietor 230º 6kt Gust 18kt
Viditeľnosť >10km
Počasie -
Oblaky Broken Clouds 1700ft
Tlak 1013
Zmeniť -
Nespracované KSAN 252051Z 23006G18KT 10SM BKN017 18/13 A2993 RMK AO2 SLP134 T01830128 58004

MVFR

17.2°C / 12.8°C

[Viac]
Vietor variable 6kt
Viditeľnosť >10km
Počasie -
Oblaky Overcast 1600ft
Tlak
Zmeniť -
Nespracované KSAN 252007Z VRB06KT 10SM OVC016 17/13 A2994 RMK AO2 T01720128

MVFR

17.2°C / 12.8°C

[Viac]
Vietor variable 5kt
Viditeľnosť >10km
Počasie -
Oblaky Overcast 1600ft
Tlak 1013
Zmeniť -
Nespracované KSAN 251951Z VRB05KT 10SM OVC016 17/13 A2994 RMK AO2 SLP136 T01720128

MVFR

16.7°C / 13.3°C

[Viac]
Vietor 210º 7kt
Viditeľnosť >10km
Počasie -
Oblaky Overcast 1200ft
Tlak 1013
Zmeniť -
Nespracované KSAN 251851Z 21007KT 9SM OVC012 17/13 A2994 RMK AO2 SLP139 T01670133

MVFR

16.1°C / 13.3°C

[Viac]
Vietor 200º 6kt Gust 18kt
Viditeľnosť >10km
Počasie -
Oblaky Overcast 1000ft
Tlak 1013
Zmeniť -
Nespracované KSAN 251751Z 20006G18KT 8SM OVC010 16/13 A2994 RMK AO2 SLP137 T01610133 10161 20128 51015

MVFR

16.1°C / 13.3°C

[Viac]
Vietor variable 6kt
Viditeľnosť >10km
Počasie -
Oblaky Overcast 1000ft
Tlak 1013
Zmeniť -
Nespracované KSAN 251651Z VRB06KT 7SM OVC010 16/13 A2994 RMK AO2 SLP136 T01610133

MVFR

16.1°C / 13.3°C

[Viac]
Vietor 210º 6kt
Viditeľnosť >10km
Počasie -
Oblaky Overcast 1000ft
Tlak 1013
Zmeniť -
Nespracované KSAN 251551Z 21006KT 7SM OVC010 16/13 A2992 RMK AO2 SLP130 T01610133

MVFR

15.6°C / 13.3°C

[Viac]
Vietor variable 4kt
Viditeľnosť >10km
Počasie -
Oblaky Broken Clouds 1000ft
Tlak
Zmeniť -
Nespracované KSAN 251505Z VRB04KT 7SM BKN010 16/13 A2990 RMK AO2 T01560133

IFR

15.6°C / 13.3°C

[Viac]
Vietor variable 0kt
Viditeľnosť >10km
Počasie -
Oblaky Broken Clouds 900ft
Tlak 1012
Zmeniť -
Nespracované KSAN 251451Z 00000KT 7SM BKN009 16/13 A2989 RMK AO2 SLP122 T01560133 53012

VFR

15.6°C / 13.3°C

[Viac]
Vietor variable 4kt
Viditeľnosť >10km
Počasie -
Oblaky Few Clouds 900ft
Tlak
Zmeniť -
Nespracované KSAN 251435Z VRB04KT 7SM FEW009 16/13 A2989 RMK AO2 T01560133

MVFR

13.9°C / 13.3°C

[Viac]
Vietor variable 0kt
Viditeľnosť 8000m
Počasie Mist
Oblaky Vertical Visibility of 0ft.
Tlak 1011
Zmeniť -
Nespracované KSAN 251351Z 00000KT 5SM BR FEW012 14/13 A2988 RMK AO2 SLP117 T01390133

VFR

13.3°C / 11.7°C

[Viac]
Vietor 350º 3kt
Viditeľnosť 9700m
Počasie Mist
Oblaky Vertical Visibility of 0ft.
Tlak 1011
Zmeniť -
Nespracované KSAN 251251Z 35003KT 6SM BR FEW012 13/12 A2986 RMK AO2 SLP112 T01330117

VFR

13.3°C / 12.2°C

[Viac]
Vietor variable 0kt
Viditeľnosť >10km
Počasie -
Oblaky Few Clouds 1200ft
Tlak 1011
Zmeniť -
Nespracované KSAN 251151Z 00000KT 8SM FEW012 13/12 A2986 RMK AO2 SLP111 T01330122 10144 20133 56003

VFR

13.3°C / 11.7°C

[Viac]
Vietor variable 0kt
Viditeľnosť >10km
Počasie -
Oblaky Few Clouds 1200ft
Tlak 1011
Zmeniť -
Nespracované KSAN 251051Z 00000KT 8SM FEW012 13/12 A2986 RMK AO2 SLP111 T01330117

VFR

13.9°C / 12.2°C

[Viac]
Vietor variable 0kt
Viditeľnosť >10km
Počasie -
Oblaky Few Clouds 1200ft
Tlak 1011
Zmeniť -
Nespracované KSAN 250951Z 00000KT 8SM FEW012 14/12 A2986 RMK AO2 SLP112 T01390122

Správy TAF pre lokalitu San Diego (KSAN)

From till


From till Wind 230º 6kt. Visibility 10km or more. Few Clouds 1800ft.
From till Wind variable 4kt. Visibility 10km or more. Overcast 1200ft.
From till Wind 210º 7kt. Visibility 10km or more. Scattered Clouds 1500ft.
From till Wind variable 4kt. Visibility 10km or more. Overcast 1400ft.

Nespracované: KSAN 260246Z 2603/2706 23006KT P6SM FEW018 FM260600 VRB04KT P6SM OVC012 FM262000 21007KT P6SM SCT015 FM270200 VRB04KT P6SM OVC014

Radar a krátkodobá predpoveď zrážok pre San Diego

Mrholenie
Slabý
Mierne
Ťažké
Veľmi ťažké
Krúpy

Značka polohy je umiestnená na San Diego. Táto animácia ukazuje zrážky pozorované radarom za poslednú hodinu a tiež 1h predpoveď. Mrholenie alebo slabé sneženie môže byť pre radar neviditeľné. Intenzita zrážok je farebne označená od svetlomodrej po oranžovú.

Aktuálne satelitné snímky pre lokalitu San Diego, Spojené štáty americké

Značka polohy je umiestnená naSan Diego. [Viac]

Satelitné snímky zhotovované v reálnom čase využívajú viditeľné svetlo počas dňa a infračervené žiarenie počas noci. Vzhľadom na to, že infračervené žiarenie zisťuje teplotné rozdiely, snímka v noci nie je tmavá. Nízke oblaky a hmlu je, žiaľ, ťažké odlíšiť od prízemných teplôt, preto môžu byť počas noci takmer neviditeľné. Meteosat satelitné snímky pre Európu sú aktualizované v reálnom čase každých 5 minút. Snímky z GOES-16/GOES-17 (Severná a Južná Amerika) a Himawari (Ázia) sú aktualizované každých 10 minút.

Späť nahor